Other Public Products
Issued by NWS Grand Forks, ND

Home | Current Version | Previous Version | Graphics & Text | Print | Product List | Glossary On
Versions: 1 2 3 4 5 6 7 8 9 10 11 12 13 14 15 16 17 18 19 20 21 22 23 24 25 26 27 28 29 30 31 32 33 34 35 36 37 38 39 40 41 42 43 44 45 46 47 48 49 50
000
FPUS83 KFGF 050431
OPUFGF
PRAIRIE TO PINES WEATHER ROUNDUP
NATIONAL WEATHER SERVICE EASTERN NORTH DAKOTA/GRAND FORKS ND
1100 PM CDT TUE AUG 04 2015

 **SATELLITE DATA USED TO AUGMENT SKY COVER AT AUTOMATED STATIONS**
 *****  WEATHER ACROSS EASTERN NORTH DAKOTA  *****

CITY           SKY/WX    TMP DP  RH WIND       PRES   REMARKS
GRAND FORKS    CLEAR     66  56  70 NE7       30.03R
GRAND FORKS AF CLEAR     64  54  69 NE7       30.04R
GRAND CITY NWS   N/A     63 N/A N/A NE2         N/A
BUXTON         NOT AVBL
DEVILS LAKE      N/A    N/A N/A N/A MISG        N/A
FARGO          CLEAR     61  56  83 E6        30.02R
WAHPETON ARPT  NOT AVBL
$$

 *****  WEATHER ACROSS CENTRAL AND WESTERN NORTH DAKOTA  *****

CITY           SKY/WX    TMP DP  RH WIND       PRES   REMARKS
JAMESTOWN      CLEAR     63  56  78 E8        30.02R
BISMARCK       PTCLDY    71  61  70 SE8       29.97R
MINOT          MOCLDY    66  52  60 E9        29.97S
MINOT AFB      MOCLDY    65  55  70 SE13      29.96S
GARRISON         N/A     70  56  61 E14       29.96S
WILLISTON      CLOUDY    77  55  46 SE15      29.89S
DICKINSON      CLOUDY    68  57  68 S6        29.95R
HETTINGER      CLOUDY    72  54  53 SE13      29.98R
$$

 *****  OTHER OBSERVATIONS NORTHEAST NORTH DAKOTA  *****

CITY           SKY/WX    TMP DP  RH WIND       PRES   REMARKS
WALHALLA       FAIR      55  55 100 MISG      30.07R
LANGDON        FAIR      59  54  82 E9        30.07R
CAVALIER       FAIR      59  55  88 CALM      30.06R
GRAFTON        FAIR      59  55  88 NE6       30.06R
CANDO          FAIR      59  55  88 E8        30.05R
FORT TOTTEN      N/A     65  55  71 E7        29.95S
ROLLA          FAIR      57  54  88 SE8       30.06S
RUGBY          NOT AVBL
 ***** THE ABOVE OBSERVATIONS ARE NON NWS ARE NOT QUALITY
        CONTROLLED AND MAY MIS-REPORT RAIN FOR SNOW...
$$

 *****  OTHER OBSERVATIONS SOUTHEAST NORTH DAKOTA *****

CITY           SKY/WX    TMP DP  RH WIND       PRES   REMARKS
COOPERSTOWN    NOT AVBL
VALLEY CITY    FAIR      63  55  77 E7        30.04R
OAKES            N/A     59  57  94 E9        30.03R
GWINNER        FAIR      61  55  82 E3        30.03S
BUFFALO        NOT AVBL
WYNDMERE         N/A     57  54  88 N2          N/A
 ***** THE ABOVE OBSERVATIONS ARE NON NWS ARE NOT QUALITY
       CONTROLLED AND MAY MIS-REPORT RAIN FOR SNOW...
$$

  *****  WEATHER ACROSS NORTHERN MINNESOTA  *****

CITY           SKY/WX    TMP DP  RH WIND       PRES   REMARKS
FLAG ISLAND    CLEAR     63  54  72 E5        30.05R
WARROAD        CLEAR     55  52  88 CALM      30.07R
ROSEAU         CLEAR     55  50  82 SE3       30.06S
HALLOCK        CLEAR     59  54  82 NE6       30.06R
THF RVR FALLS  CLEAR     61  52  72 E7        30.06R
HALSTAD        NOT AVBL
FOSSTON        CLEAR     54  46  76 CALM      30.07R
BAUDETTE       CLEAR     56  51  84 SW3       30.07R
WASKISH        CLEAR     52  50  93 CALM      30.08R
CROOKSTON      CLEAR     63  54  72 E5        30.05R
$$
  *****  WEATHER ACROSS CENTRAL AND WEST MINNESOTA  *****

CITY           SKY/WX    TMP DP  RH WIND       PRES   REMARKS
BEMIDJI        CLEAR     54  50  87 CALM      30.07R
PARK RAPIDS    CLEAR     64  53  67 CALM      30.06R
WADENA         CLEAR     55  52  88 NE5       30.05S
DETROIT LAKES  CLEAR     63  57  82 CALM      30.06S
MOORHEAD       CLEAR     63  55  77 CALM      30.03S
FERGUS FALLS   CLEAR     64  55  72 E6        30.02F
ELBOW LAKE     FAIR      67  55  65 NE5       30.03S
MORRIS MN      CLEAR     61  55  82 E3        30.02S
STAPLES        CLEAR     61  54  77 CALM      30.05S
WHEATON        CLEAR     59  54  82 E3        30.04R
$$
  *****  WEATHER ELSEWHERE ACROSS MINNESOTA  *****

CITY           SKY/WX    TMP DP  RH WIND       PRES   REMARKS
DULUTH         PTCLDY    56  48  74 E5        30.07R
INTRNTL FALLS  CLEAR     47  46  97 CALM      30.07R
ELY            MOCLDY    54  52  94 CALM      30.08R
CLOQUET        PTCLDY    59  46  63 E5        30.07R
BRAINERD       CLEAR     58  52  80 CALM      30.05R
HIBBING        CLEAR     49  46  90 CALM      30.08R
ALEXANDRIA     CLEAR     63  57  81 CALM      30.06R
SAINT CLOUD    CLEAR     59  56  89 CALM      30.03R
MINNEAPOLIS    PTCLDY    73  53  49 W3        30.01S
$$

  *****  WEATHER ACROSS SOUTH DAKOTA  *****

CITY           SKY/WX    TMP DP  RH WIND       PRES   REMARKS
SIOUX FALLS    MOCLDY    68  61  78 E8        30.02R
BROOKINGS      PTCLDY    66  57  72 SE8       30.06R
WATERTOWN      MOCLDY    68  54  60 SE5       30.03R
HURON          MOCLDY    69  61  75 SE8       29.99R
SISSETON         N/A     58  55  90 CALM      30.02R
ABERDEEN       PTCLDY    68  57  68 E8        30.01R
MITCHELL       MOCLDY    67  64  90 SE7       30.00R
PIERRE         MOCLDY    72  61  68 SE10      29.97R
MOBRIDGE       PTCLDY    69  61  75 SE8       29.96S
RAPID CITY     CLOUDY    70  60  70 SE9       29.98R
$$

  *****  SOME WEATHER IN NEARBY STATES *****

CITY           SKY/WX    TMP DP  RH WIND       PRES   REMARKS
GLASGOW MT     LGT RAIN  69  62  78 SE7       29.92R
GREAT FALLS MT PTCLDY    68  51  54 SE8       29.95R
CHEYENNE WY    CLEAR     62  56  80 W5        30.20R
SCOTTSBLUFF NE MOCLDY    67  64  90 CALM      30.06R
OMAHA NE       CLOUDY    72  67  84 SE10      29.96F
DES MOINES IA  LGT RAIN  73  62  68 E7        30.00F
DAVENPORT IA   PTCLDY    65  63  93 NW3       30.05R
CHICAGO IL     PTCLDY    68  57  68 SE5       30.03S
EAU CLAIRE WI  CLEAR     60  56  86 CALM      30.02R
LA CROSSE WI   CLEAR     66  59  78 S6        30.02R
$$

  *****  SOME NATIONAL WEATHER *****

CITY           SKY/WX    TMP DP  RH WIND       PRES   REMARKS
LA GUARDIA NY  PTCLDY    79  58  48 N3        29.90R
RALEIGH NC     MOCLDY    80  72  76 S3        29.99R
ATLANTA GA     PTCLDY    81  65  58 NW6       30.03R
NEW ORLEANS LA PTCLDY    81  72  74 W8        29.99R
OKLAHOMA CITY  PTCLDY    78  73  84 E5        29.97R
ALBUQUERQUE NM PTCLDY    85  41  21 N6        30.15R
SALT LAKE CITY PTCLDY    79  52  38 SE3       29.96F
LOS ANGELES CA PTCLDY    71  62  73 SW12      29.89R
BOISE ID       PTCLDY    84  47  27 E5        29.86R
SEATTLE WA     PTCLDY    67  52  58 W3        29.98R
$$

*** WEATHER ACROSS MANITOBA...SASKATCHEWAN AND ONTARIO ***
                ***ONTARIO***

CITY           SKY/WX    TMP DP  RH WIND       PRES   REMARKS
GERALDTON      PTCLDY    50  48  93 W5        30.00R
THUNDER BAY    CLEAR     54  52  94 SW5       30.04R
SIOUX LOOKOUT  PTCLDY    50  48  93 W3        30.07R
TORONTO        PTCLDY    64  57  77 NW15      29.94R
BIG TROUT LK   CLOUDY    55  48  76 N6        30.03R
PICKLE LAKE    NOT AVBL
DRYDEN         CLOUDY    57  52  82 SW3       30.08R
KENORA         PTCLDY    57  52  82 SE6       30.07S
$$
                *** MANITOBA***

CITY           SKY/WX    TMP DP  RH WIND       PRES   REMARKS
BRANDON        MOCLDY    57  54  88 E9        30.05R
DAUPHIN        CLOUDY    59  55  88 E7        30.03S
ISLAND LAKE    CLOUDY    57  55  94 NE3       30.07S
PILOT MOUND      N/A     55  52  88 E7          N/A
THE PAS        CLOUDY    64  55  72 E5        30.02S
THOMPSON       MOCLDY    55  50  82 VRB2      30.09R
WINNIPEG       CLEAR     55  54  94 E2        30.06R
LYNN LAKE      CLOUDY    59  54  82 E5        30.09R
CHURCHILL      FOG       46  46 100 N5        30.12F VSB 1/4
GILLAM         PTCLDY    52  48  87 E6        30.10S
$$
                ***SASKATCHEWAN***

CITY           SKY/WX    TMP DP  RH WIND       PRES   REMARKS
ESTEVAN        CLOUDY    68  54  60 E15G24    29.94S
KINDERSLEY     CLOUDY    63  57  82 W8        29.83R
LLOYDMINSTER   CLOUDY    63  55  77 NE8       29.85S
PRINCE ALBERT  LGT RAIN  61  57  88 E8        29.95R
REGINA         LGT RAIN  68  59  73 E8        29.94R
YORKTON        MOCLDY    63  55  77 E14       29.98R HAZE


USA.gov is the U.S. government's official web portal to all federal, state and local government web resources and services.